Location: Unspecified
(42.2936°N, 3.1641°W)
Time: 15:39:55
(UTC+02:00)

X-37B - Pass Details

Date: 11 March 2021
Orbit: 380 x 394 km, 45.0° (Epoch: 07 April)

Event Time Altitude Azimuth Distance (km) Brightness Sun altitude
Rises 20:12:38 0° 217° (SW) 2,258 4.9 -11.5°
Reaches altitude 10° 20:14:55 10° 202° (SSW) 1,411 3.6 -12.0°
Maximum altitude 20:17:32 23° 147° (SSE) 869 2.0 -12.4°
Enters shadow 20:18:24 21° 121° (ESE) 946 2.0 -12.6°
